Location: Battersea Observatory
(44.4318°N, 76.3841°W)
Time: 15:20:03
(UTC-05:00)

Tiros 1 - All Passes

Search period start: 25 January 2022 00:00
Search period end: 04 February 2022 00:00
Orbit: 629 x 664 km, 48.4° (Epoch: 25 January)

Date Brightness Start Highest point End Pass type
(mag) Time Alt. Az. Time Alt. Az. Time Alt. Az.
25 Jan - 00:14:08 10° W 00:18:56 70° NNW 00:23:43 10° ENE night (unlit)
25 Jan - 01:56:50 10° WNW 02:01:33 53° N 02:06:12 10° E night (unlit)
25 Jan - 03:39:14 10° WNW 03:44:02 88° SSW 03:48:46 10° ESE visible
25 Jan - 05:21:57 10° W 05:25:49 25° SW 05:29:38 10° SSE visible
25 Jan - 21:17:27 10° S 21:20:55 20° SE 21:24:23 10° E night (unlit)
25 Jan - 22:57:47 10° WSW 23:02:35 75° SSE 23:07:23 10° ENE night (unlit)
26 Jan - 00:40:16 10° W 00:44:59 55° N 00:49:42 10° ENE night (unlit)
26 Jan - 02:22:52 10° WNW 02:27:38 63° NNE 02:32:21 10° E night (unlit)
26 Jan - 04:05:12 10° WNW 04:09:51 51° SSW 04:14:25 10° SE visible
26 Jan - 05:49:35 10° WSW 05:51:13 12° SW 05:52:50 10° SSW visible
26 Jan - 21:41:59 10° SSW 21:46:26 39° SE 21:50:55 10° ENE night (unlit)
26 Jan - 23:23:41 10° WSW 23:28:30 72° NNW 23:33:19 10° ENE night (unlit)
27 Jan - 01:06:24 10° WNW 01:11:07 52° N 01:15:48 10° E night (unlit)
27 Jan - 02:48:48 10° WNW 02:53:37 88° NNE 02:58:23 10° ESE night (unlit)
27 Jan - 04:31:28 10° W 04:35:27 27° SW 04:39:24 10° SSE visible
27 Jan - 20:27:17 10° S 20:30:34 18° SE 20:33:50 10° E night (unlit)
27 Jan - 22:07:23 10° SW 22:12:10 71° SSE 22:16:58 10° ENE night (unlit)
27 Jan - 23:49:49 10° W 23:54:33 56° N 23:59:17 10° ENE night (unlit)
28 Jan - 01:32:26 10° WNW 01:37:13 61° NNE 01:41:56 10° E night (unlit)
28 Jan - 03:14:46 10° WNW 03:19:27 55° SSW 03:24:04 10° SE night (unlit)
28 Jan - 04:58:45 10° WSW 05:00:52 13° SW 05:02:59 10° SSW visible
28 Jan - 20:51:41 10° SSW 20:56:04 36° SE 21:00:28 10° ENE night (unlit)
28 Jan - 22:33:15 10° WSW 22:38:05 75° NNW 22:42:54 10° ENE night (unlit)
29 Jan - 00:15:57 10° WNW 00:20:40 52° N 00:25:22 10° E night (unlit)
29 Jan - 01:58:23 10° WNW 02:03:13 84° NNE 02:07:59 10° ESE night (unlit)
29 Jan - 03:40:58 10° W 03:45:05 29° SW 03:49:10 10° SSE night (unlit)
29 Jan - 19:37:09 10° S 19:40:11 17° SE 19:43:16 10° E visible
29 Jan - 21:17:00 10° SW 21:21:46 67° SSE 21:26:33 10° ENE night (unlit)
29 Jan - 22:59:22 10° W 23:04:07 57° N 23:08:52 10° ENE night (unlit)
30 Jan - 00:42:00 10° WNW 00:46:46 59° N 00:51:30 10° E night (unlit)
30 Jan - 02:24:20 10° WNW 02:29:04 59° SSW 02:33:43 10° SE night (unlit)
30 Jan - 04:08:01 10° W 04:10:31 14° SW 04:13:01 10° SSW night (unlit)
30 Jan - 20:01:23 10° SSW 20:05:41 34° SE 20:10:00 10° ENE visible
30 Jan - 21:42:50 10° WSW 21:47:39 78° NNW 21:52:29 10° ENE night (unlit)
30 Jan - 23:25:31 10° WNW 23:30:14 52° N 23:34:56 10° ENE night (unlit)
31 Jan - 01:07:57 10° WNW 01:12:47 81° NNE 01:17:35 10° ESE night (unlit)
31 Jan - 02:50:29 10° W 02:54:43 31° SW 02:58:54 10° SSE night (unlit)
31 Jan - 18:47:03 10° S 18:49:51 15° SE 18:52:39 10° E visible
31 Jan - 20:26:37 10° SW 20:31:22 62° SSE 20:36:08 10° ENE visible
31 Jan - 22:08:55 10° W 22:13:41 58° N 22:18:26 10° ENE night (unlit)
31 Jan - 23:51:34 10° WNW 23:56:20 58° N 00:01:04 10° E night (unlit)
01 Feb - 01:33:54 10° WNW 01:38:39 63° SSW 01:43:21 10° SE night (unlit)
01 Feb - 03:17:21 10° W 03:20:11 16° SW 03:22:59 10° S night (unlit)
01 Feb - 19:11:06 10° SSW 19:15:18 31° SE 19:19:32 10° E visible
01 Feb - 20:52:24 10° WSW 20:57:13 82° NNW 21:02:04 10° ENE visible
01 Feb - 22:35:04 10° WNW 22:39:47 52° N 22:44:30 10° ENE night (unlit)
02 Feb - 00:17:32 10° WNW 00:22:22 78° NNE 00:27:10 10° ESE night (unlit)
02 Feb - 02:00:01 10° WNW 02:04:21 34° SW 02:08:37 10° SSE night (unlit)
02 Feb - 17:57:01 10° SSE 17:59:29 14° SE 18:01:59 10° E visible
02 Feb - 19:36:16 10° SW 19:40:57 58° SSE 19:45:41 10° ENE visible
02 Feb - 21:18:28 10° W 21:23:14 60° NNW 21:28:01 10° ENE visible
02 Feb - 23:01:08 10° WNW 23:05:54 57° N 23:10:38 10° E night (unlit)
03 Feb - 00:43:28 10° WNW 00:48:15 67° SSW 00:52:59 10° SE night (unlit)
03 Feb - 02:26:44 10° W 02:29:50 17° SW 02:32:54 10° S night (unlit)
03 Feb - 18:20:49 10° SSW 18:24:55 29° SE 18:29:03 10° E visible
03 Feb - 20:01:59 10° WSW 20:06:48 85° NNW 20:11:39 10° ENE visible
03 Feb - 21:44:37 10° W 21:49:20 52° N 21:54:04 10° ENE visible
03 Feb - 23:27:06 10° WNW 23:31:56 75° NNE 23:36:44 10° ESE night (unlit)
